STARLINK-36973, 68078

Orbit data source: Space-Track

STARLINK-36973, 68078 is a payload satellite owned by SpaceX/Seattle (US) in LEO that was launched on Wed, 04 Mar 2026 UTC via an FALCON 9 launch vehicle from the Air Force Eastern Test Range (AFETR). Payload-class satellites include a variety of spacecraft equipped with specific instruments for various scientific and technological missions. These include communications satellites like Starlink; space stations such as the ISS; scientific satellites like the Hubble; Earth observation satellites from companies like Planet Labs, Umbra, and HawkEye 360; GPS; miniature CubeSats for education and research; and military/defense satellites.

Loading next visibility...
Identifier
68078, 2026-042K
Orbit
LEO
Country
Flag of USUS
Related business
Manufacturer
SpaceX/Seattle
Mission
Operational spacecraft
Bus & Motor
STARLINK V2MO, Unknown motor
Mass
575 kg wet, ~530 kg dry
Launch date (UTC)
2026-03-04 (1 month ago)
Launch vehicle
FALCON 9
Launch site
Air Force Eastern Test Range (AFETR)
Object type
Payload
Rocket body
Debris
Shape & HBR
Unknown shape, 17.7 m
Radar Cross Section
RCS unknown

Expand to show TLE details & history
Last TLE update: 8 hours ago

TLE from 8 hours ago
0 STARLINK-36973
1 68078U 26042K   26102.25586975  .00152669  00000-0  98150-3 0  9996
2 68078  53.1575  27.1729 0001199  91.6003 268.5155 15.75255843  7389
Epoch: 2026-04-12T06:08Z
TLE epoch observation values (Epoch: 2026-04-12T06:08:27.146Z)
Latitude
0.00001°
Longitude
94.59636°
Altitude
344.841 km
Speed
7.703 km/s
True Right ascension
01h 48m 41s
True Declination
0° 00' 00"
Sunlit
Object was in daylight at epoch
Visualization orbit readout
Latitude
Unknown
Longitude
Unknown
Altitude
Unknown
Speed
Unknown
Apparent Right ascension
Unknown
Apparent Declination
Unknown
Sunlit
N/A
Visualization observer readout
Local Sidereal Time
20:32:01
Azimuth
Unknown
Elevation
Unknown
Doppler factor
Unknown
Orbital elements
Apogee altitude
344.971 km
Perigee altitude
343.359 km
Semi-major axis
6,722.302 km
Eccentricity
0.00012
Inclination
53.1575°
RAAN
27.1729°
Arg. of periapsis
91.6003°
True anomaly
268.50177°
Mean anomaly
268.5155°
Eccentric anomaly
268.50863°
Mean motion
3.93791 °/min
Orbital period
91.42 mins
BSTAR
0.0009815
Loading maneuver chart data...
Computing Atmospheric mass density...
Loading historical data...
Loading historical data...
Loading historical data...
Loading historical data...
Loading historical data...
Loading historical data...
Loading historical data...

Documentation

Showing up to 5 results
|